RYR714 EGJJ-LFBO

Flight info

Callsign RYR714
Flight time 1h 4m
Altitude 35000
Route DIN R14 NTS UM616 TUPAR DCT CNA DCT UVELI DCT SECHE
Aircraft B738/M-SDE2E3FGHIRWXY/LB1

Departure

Time 2026-01-18 05:46
Airport Jersey Airport (EGJJ)

Arrival

Time 2026-01-18 06:50
Airport Toulouse-Blagnac Airport (LFBO)
Time Latitude Longitude Altitude Speed Heading
2026-01-18 05:33 49.20554 -2.19753 283 ft 0 kts 173°
2026-01-18 05:39 49.20590 -2.19754 283 ft 3 kts 192°
2026-01-18 05:39 49.20616 -2.19726 283 ft 0 kts 263°
2026-01-18 05:42 49.20607 -2.19851 283 ft 12 kts 263°
2026-01-18 05:42 49.20556 -2.20180 283 ft 14 kts 286°
2026-01-18 05:43 49.20611 -2.20471 283 ft 15 kts 284°
2026-01-18 05:43 49.20627 -2.20616 283 ft 12 kts 274°
2026-01-18 05:44 49.20709 -2.20613 285 ft 0 kts 82°
2026-01-18 05:45 49.20850 -2.18906 312 ft 156 kts 83°
2026-01-18 05:45 49.21107 -2.15692 2217 ft 160 kts 94°
2026-01-18 05:46 49.19636 -2.12616 3057 ft 205 kts 150°
2026-01-18 05:46 49.18342 -2.11604 3704 ft 213 kts 151°
2026-01-18 05:47 49.15410 -2.09303 4657 ft 254 kts 151°
2026-01-18 05:47 49.10666 -2.05633 4995 ft 256 kts 156°
2026-01-18 05:48 49.07104 -2.05373 5000 ft 260 kts 181°
2026-01-18 05:48 49.03485 -2.05674 4999 ft 261 kts 181°
2026-01-18 05:49 48.99827 -2.05901 6200 ft 262 kts 180°
2026-01-18 05:49 48.96812 -2.06069 7908 ft 261 kts 180°
2026-01-18 05:49 48.94981 -2.06169 8807 ft 265 kts 180°
2026-01-18 05:50 48.89390 -2.06479 11464 ft 273 kts 180°
2026-01-18 05:50 48.87479 -2.06586 12289 ft 277 kts 180°
2026-01-18 05:51 48.83458 -2.06808 13228 ft 311 kts 180°
2026-01-18 05:51 48.78825 -2.07064 13797 ft 350 kts 181°
2026-01-18 05:52 48.71424 -2.07484 15938 ft 360 kts 181°
2026-01-18 05:53 48.66374 -2.07767 17333 ft 367 kts 181°
2026-01-18 05:53 48.61230 -2.08053 18656 ft 373 kts 181°
2026-01-18 05:54 48.56151 -2.06715 19909 ft 377 kts 158°
2026-01-18 05:54 48.51349 -2.03415 21115 ft 382 kts 156°
2026-01-18 05:55 48.46479 -2.00050 22269 ft 387 kts 157°
2026-01-18 05:55 48.44064 -1.98407 22818 ft 390 kts 157°
2026-01-18 05:55 48.39088 -1.95056 23906 ft 393 kts 158°
2026-01-18 05:56 48.29021 -1.88321 25653 ft 401 kts 158°
2026-01-18 05:59 48.05347 -1.73947 29175 ft 412 kts 171°
2026-01-18 06:01 47.82564 -1.70520 31793 ft 419 kts 175°
2026-01-18 06:03 47.59118 -1.67021 34014 ft 428 kts 175°
2026-01-18 06:05 47.35177 -1.63835 34964 ft 433 kts 175°
2026-01-18 06:06 47.14659 -1.58973 34975 ft 431 kts 150°
2026-01-18 06:08 46.96532 -1.35630 34977 ft 436 kts 140°
2026-01-18 06:10 46.78411 -1.12039 34967 ft 435 kts 140°
2026-01-18 06:13 46.58249 -0.86037 34976 ft 428 kts 140°
2026-01-18 06:15 46.39765 -0.64742 34964 ft 421 kts 161°
2026-01-18 06:17 46.17480 -0.54595 34965 ft 420 kts 163°
2026-01-18 06:19 45.95273 -0.44447 34973 ft 416 kts 162°
2026-01-18 06:21 45.73382 -0.34528 34952 ft 410 kts 162°
2026-01-18 06:23 45.52486 -0.21886 34950 ft 408 kts 154°
2026-01-18 06:25 45.32067 -0.07835 34930 ft 408 kts 154°
2026-01-18 06:27 45.11636 0.06089 34924 ft 407 kts 154°
2026-01-18 06:29 44.91331 0.19817 31230 ft 400 kts 153°
2026-01-18 06:31 44.71489 0.33137 25639 ft 382 kts 152°
2026-01-18 06:31 44.66677 0.36355 24500 ft 392 kts 152°
2026-01-18 06:32 44.64180 0.38026 23912 ft 400 kts 152°
2026-01-18 06:33 44.54318 0.44587 21416 ft 382 kts 153°
2026-01-18 06:33 44.51966 0.46149 20835 ft 377 kts 153°
2026-01-18 06:33 44.49577 0.47736 20256 ft 373 kts 153°
2026-01-18 06:34 44.42678 0.52303 18724 ft 360 kts 154°
2026-01-18 06:34 44.38109 0.55297 18052 ft 372 kts 154°
2026-01-18 06:35 44.33402 0.58372 17280 ft 371 kts 154°
2026-01-18 06:35 44.31074 0.59892 16927 ft 368 kts 154°
2026-01-18 06:36 44.26468 0.62896 16257 ft 363 kts 154°
2026-01-18 06:36 44.19650 0.67335 15273 ft 360 kts 154°
2026-01-18 06:37 44.15113 0.70283 14607 ft 359 kts 154°
2026-01-18 06:37 44.12846 0.71755 14278 ft 358 kts 154°
2026-01-18 06:38 44.06094 0.76130 13240 ft 355 kts 154°
2026-01-18 06:38 44.01638 0.79011 12564 ft 351 kts 154°
2026-01-18 06:39 43.99434 0.80434 12230 ft 349 kts 154°
2026-01-18 06:39 43.95086 0.83240 11588 ft 336 kts 154°
2026-01-18 06:40 43.90982 0.85881 10988 ft 319 kts 154°
2026-01-18 06:40 43.85197 0.90030 9811 ft 300 kts 149°
2026-01-18 06:41 43.81860 0.92659 9712 ft 258 kts 150°
2026-01-18 06:41 43.79299 0.94653 9184 ft 249 kts 150°
2026-01-18 06:41 43.77776 0.95833 8967 ft 252 kts 150°
2026-01-18 06:42 43.73753 1.00260 8224 ft 255 kts 112°
2026-01-18 06:42 43.73478 1.02676 8000 ft 258 kts 89°
2026-01-18 06:43 43.75199 1.07005 7133 ft 273 kts 37°
2026-01-18 06:43 43.78751 1.08996 5849 ft 278 kts 45°
2026-01-18 06:44 43.80264 1.16049 4417 ft 247 kts 95°
2026-01-18 06:45 43.78665 1.19657 3985 ft 217 kts 139°
2026-01-18 06:45 43.76366 1.22154 3464 ft 201 kts 143°
2026-01-18 06:46 43.74226 1.24378 2940 ft 186 kts 143°
2026-01-18 06:46 43.72253 1.26433 2462 ft 168 kts 144°
2026-01-18 06:47 43.70540 1.28216 2084 ft 147 kts 144°
2026-01-18 06:47 43.69712 1.29075 1869 ft 149 kts 146°
2026-01-18 06:47 43.68030 1.30826 1460 ft 154 kts 146°
2026-01-18 06:48 43.65531 1.33430 860 ft 146 kts 146°
2026-01-18 06:49 43.63911 1.35120 487 ft 142 kts 146°
2026-01-18 06:49 43.63205 1.35849 489 ft 106 kts 143°
2026-01-18 06:49 43.62550 1.36533 490 ft 25 kts 142°
2026-01-18 06:50 43.62466 1.36937 493 ft 13 kts 83°
2026-01-18 06:50 43.62479 1.37077 493 ft 17 kts 83°
2026-01-18 06:51 43.62564 1.37343 493 ft 14 kts 53°
2026-01-18 06:51 43.62702 1.37459 490 ft 13 kts 328°
2026-01-18 06:52 43.62912 1.37241 489 ft 14 kts 323°
2026-01-18 06:53 43.63029 1.37063 491 ft 7 kts 297°
2026-01-18 06:53 43.63106 1.37097 493 ft 5 kts 27°
2026-01-18 06:53 43.63124 1.37111 493 ft 1 kts 28°